Regional Weather Roundup
Issued by NWS

Home | Current Version | Previous Version | Text Only | Print | Product List | Glossary On
Versions: 1 2 3 4 5 6 7 8 9 10 11 12 13 14 15 16 17 18 19 20 21 22 23 24 25 26 27 28 29 30 31 32 33 34 35 36 37 38 39 40 41 42 43 44 45 46 47 48 49 50
000
ASUS45 KABQ 220510
RWRNM
NEW MEXICO REGIONAL WEATHER ROUNDUP
NATIONAL WEATHER SERVICE ALBUQUERQUE NM
1100 PM MDT SAT OCT 21 2017

NOTE: "FAIR" MEANS FEW OR NO CLOUDS BELOW 12,000 FEET AGL WITH NO
       SIGNIFICANT WEATHER OR OBSTRUCTIONS TO VISION.

      THIS PRODUCT IS RELEASED AS TWO VERSIONS.  ONE VERSION NEAR
      THE TOP OF THE HOUR CONTAINING PRELIMINARY DATA FROM ALBUQUERQUE
      AND OTHER STATIONS.  A FINAL VERSION WITH ADDITIONAL DATA IS
      ISSUED ABOUT 10 MINUTES AFTER THE HOUR.

NMZ501-503-504-510>518-220600-
NORTHWEST PLATEAU/NORTHCENTRAL MOUNTAINS

CITY           SKY/WX    TMP DP  RH WIND       PRES   REMARKS
FARMINGTON     FAIR      40   7  25 W5        30.31R
LOS ALAMOS     MOCLDY    42   4  20 SE3       30.30R
SANTA FE       FAIR      41   7  24 N12       30.27R
TAOS           FAIR      30   8  39 SE5       30.34R WCI  25
ANGEL FIRE     FAIR      27  10  47 W3        30.31R

$$
NMZ402-403-502-505>509-220600-
WESTCENTRAL MOUNTAINS/SOUTHWEST MOUNTAINS

CITY           SKY/WX    TMP DP  RH WIND       PRES   REMARKS
GALLUP         FAIR      30   8  39 CALM      30.36R
GRANTS         FAIR      42   9  25 N3        30.36R
SILVER CITY    FAIR      57  26  30 NW12      30.24R

$$
NMZ407-409-411-412-220600-
SOUTHERN DESERTS

CITY           SKY/WX    TMP DP  RH WIND       PRES   REMARKS
DEMING         FAIR      56  29  35 W3        30.18R
LAS CRUCES     FAIR      64  22  20 N9        30.18R
HOLLOMAN AFB   FAIR      59  30  34 N12       30.16R HAZE
ALAMOGORDO     FAIR      61  30  31 N13       30.15R
T OR C         FAIR      62  18  18 NW14G23   30.21R

$$
NMZ519>523-220600-
CENTRAL VALLEYS/CENTRAL HIGHLANDS

CITY           SKY/WX    TMP DP  RH WIND       PRES   REMARKS
ALBUQUERQUE    FAIR      52   0  12 N17       30.26R
MORIARTY ARPT  FAIR      46   4  17 NW9       30.29R
CLINES CORNERS FAIR      38   2  22 W18       30.27R WCI  28
BELEN          FAIR      45  10  23 N8        30.27R
SOCORRO        FAIR      51  11  19 CALM      30.25R

$$
NMZ524>526-539-540-220600-
SOUTHCENTRAL MOUNTAINS

CITY           SKY/WX    TMP DP  RH WIND       PRES   REMARKS
RUIDOSO        FAIR      48  14  25 W13G20    30.28R

$$
NMZ527>531-220600-
NORTHEAST HIGHLANDS/NORTHEAST PLAINS

CITY           SKY/WX    TMP DP  RH WIND       PRES   REMARKS
LAS VEGAS      FAIR      38  27  64 NE3       30.24R
RATON          FAIR      35  28  75 NE6       30.20S WCI  30
CLAYTON        FAIR      36  23  59 NW8       30.16R WCI  30

$$
NMZ532>537-220600-
EASTCENTRAL PLAINS

CITY           SKY/WX    TMP DP  RH WIND       PRES   REMARKS
SANTA ROSA     FAIR      46  34  63 CALM      30.19R
TUCUMCARI      FAIR      42  34  73 NW7       30.14R
CANNON AFB     CLEAR     44  41  90 NW6       30.18R
CLOVIS AIRPORT FAIR      43  36  76 N8        30.16R

$$
NMZ028-029-538-220600-
SOUTHEAST PLAINS

CITY           SKY/WX    TMP DP  RH WIND       PRES   REMARKS
ROSWELL        FAIR      60  24  25 N14       30.14R
ARTESIA        FAIR      55  34  44 CALM      30.15R
CARLSBAD       FAIR      59  43  55 N6        30.10R
HOBBS          FAIR      52  39  62 N9        30.12R


$$



USA.gov is the U.S. government's official web portal to all federal, state and local government web resources and services.